Year,Month,Day,Hour,Minute,Value (Times are PST for temperature in C)
2016,08,23,00,00,13.10
2016,08,23,00,01,13.10
2016,08,23,00,02,13.10
2016,08,23,00,03,13.10
2016,08,23,00,04,13.10
2016,08,23,00,05,13.10
2016,08,23,00,06,13.10
2016,08,23,00,07,13.10
2016,08,23,00,08,13.00
2016,08,23,00,09,13.00
2016,08,23,00,10,13.00
2016,08,23,00,11,13.00
2016,08,23,00,12,13.00
2016,08,23,00,13,13.00
2016,08,23,00,14,13.00
2016,08,23,00,15,12.90
2016,08,23,00,16,12.90
2016,08,23,00,17,12.90
2016,08,23,00,18,12.90
2016,08,23,00,19,12.90
2016,08,23,00,20,12.90
2016,08,23,00,21,12.90
2016,08,23,00,22,12.90
2016,08,23,00,23,12.90
2016,08,23,00,24,12.90
2016,08,23,00,25,12.90
2016,08,23,00,26,12.90
2016,08,23,00,27,12.90
2016,08,23,00,28,12.90
2016,08,23,00,29,12.90
2016,08,23,00,30,12.90
2016,08,23,00,31,12.90
2016,08,23,00,32,12.90
2016,08,23,00,33,12.90
2016,08,23,00,34,12.90
2016,08,23,00,35,12.90
2016,08,23,00,36,12.80
2016,08,23,00,37,12.80
2016,08,23,00,38,12.80
2016,08,23,00,39,12.80
2016,08,23,00,40,12.80
2016,08,23,00,41,12.80
2016,08,23,00,42,12.80
2016,08,23,00,43,12.80
2016,08,23,00,44,12.80
2016,08,23,00,45,12.80
2016,08,23,00,46,12.80
2016,08,23,00,47,12.80
2016,08,23,00,48,12.80
2016,08,23,00,49,12.80
2016,08,23,00,50,12.80
2016,08,23,00,51,12.80
2016,08,23,00,52,12.80
2016,08,23,00,53,12.80
2016,08,23,00,54,12.80
2016,08,23,00,55,12.80
2016,08,23,00,56,12.80
2016,08,23,00,57,12.80
2016,08,23,00,58,12.80
2016,08,23,00,59,12.80
2016,08,23,01,00,12.70
2016,08,23,01,01,12.70
2016,08,23,01,02,12.70
2016,08,23,01,03,12.70
2016,08,23,01,04,12.70
2016,08,23,01,05,12.70
2016,08,23,01,06,12.70
2016,08,23,01,07,12.70
2016,08,23,01,08,12.70
2016,08,23,01,09,12.70
2016,08,23,01,10,12.70
2016,08,23,01,11,12.70
2016,08,23,01,12,12.70
2016,08,23,01,13,12.70
2016,08,23,01,14,12.70
2016,08,23,01,15,12.70
2016,08,23,01,16,12.70
2016,08,23,01,17,12.70
2016,08,23,01,18,12.70
2016,08,23,01,19,12.70
2016,08,23,01,20,12.70
2016,08,23,01,21,12.70
2016,08,23,01,22,12.70
2016,08,23,01,23,12.70
2016,08,23,01,24,12.70
2016,08,23,01,25,12.70
2016,08,23,01,26,12.70
2016,08,23,01,27,12.70
2016,08,23,01,28,12.70
2016,08,23,01,29,12.60
2016,08,23,01,30,12.60
2016,08,23,01,31,12.60
2016,08,23,01,32,12.60
2016,08,23,01,33,12.60
2016,08,23,01,34,12.60
2016,08,23,01,35,12.60
2016,08,23,01,36,12.60
2016,08,23,01,37,12.60
2016,08,23,01,38,12.50
2016,08,23,01,39,12.50
2016,08,23,01,40,12.50
2016,08,23,01,41,12.50
2016,08,23,01,42,12.40
2016,08,23,01,43,12.40
2016,08,23,01,44,12.40
2016,08,23,01,45,12.40
2016,08,23,01,46,12.40
2016,08,23,01,47,12.30
2016,08,23,01,48,12.30
2016,08,23,01,49,12.30
2016,08,23,01,50,12.30
2016,08,23,01,51,12.20
2016,08,23,01,52,12.20
2016,08,23,01,53,12.20
2016,08,23,01,54,12.10
2016,08,23,01,55,12.10
2016,08,23,01,56,12.10
2016,08,23,01,57,12.10
2016,08,23,01,58,12.00
2016,08,23,01,59,12.00
2016,08,23,02,00,11.90
2016,08,23,02,01,11.90
2016,08,23,02,02,11.90
2016,08,23,02,03,11.90
2016,08,23,02,04,11.80
2016,08,23,02,05,11.80
2016,08,23,02,06,11.80
2016,08,23,02,07,11.80
2016,08,23,02,08,11.70
2016,08,23,02,09,11.70
2016,08,23,02,10,11.70
2016,08,23,02,11,11.70
2016,08,23,02,12,11.70
2016,08,23,02,13,11.70
2016,08,23,02,14,11.70
2016,08,23,02,15,11.70
2016,08,23,02,16,11.60
2016,08,23,02,17,11.60
2016,08,23,02,18,11.60
2016,08,23,02,19,11.60
2016,08,23,02,20,11.60
2016,08,23,02,21,11.60
2016,08,23,02,22,11.60
2016,08,23,02,23,11.60
2016,08,23,02,24,11.60
2016,08,23,02,25,11.60
2016,08,23,02,26,11.60
2016,08,23,02,27,11.50
2016,08,23,02,28,11.50
2016,08,23,02,29,11.50
2016,08,23,02,30,11.50
2016,08,23,02,31,11.50
2016,08,23,02,32,11.50
2016,08,23,02,33,11.50
2016,08,23,02,34,11.50
2016,08,23,02,35,11.50
2016,08,23,02,36,11.50
2016,08,23,02,37,11.50
2016,08,23,02,38,11.50
2016,08,23,02,39,11.50
2016,08,23,02,40,11.50
2016,08,23,02,41,11.50
2016,08,23,02,42,11.50
2016,08,23,02,43,11.50
2016,08,23,02,44,11.50
2016,08,23,02,45,11.40
2016,08,23,02,46,11.40
2016,08,23,02,47,11.40
2016,08,23,02,48,11.40
2016,08,23,02,49,11.40
2016,08,23,02,50,11.40
2016,08,23,02,51,11.40
2016,08,23,02,52,11.40
2016,08,23,02,53,11.40
2016,08,23,02,54,11.40
2016,08,23,02,55,11.40
2016,08,23,02,56,11.40
2016,08,23,02,57,11.40
2016,08,23,02,58,11.40
2016,08,23,02,59,11.40
2016,08,23,03,00,11.30
2016,08,23,03,01,11.30
2016,08,23,03,02,11.30
2016,08,23,03,03,11.30
2016,08,23,03,04,11.30
2016,08,23,03,05,11.40
2016,08,23,03,06,11.40
2016,08,23,03,07,11.40
2016,08,23,03,08,11.40
2016,08,23,03,09,11.40
2016,08,23,03,10,11.40
2016,08,23,03,11,11.40
2016,08,23,03,12,11.30
2016,08,23,03,13,11.30
2016,08,23,03,14,11.30
2016,08,23,03,15,11.30
2016,08,23,03,16,11.30
2016,08,23,03,17,11.30
2016,08,23,03,18,11.30
2016,08,23,03,19,11.30
2016,08,23,03,20,11.30
2016,08,23,03,21,11.30
2016,08,23,03,22,11.30
2016,08,23,03,23,11.30
2016,08,23,03,24,11.30
2016,08,23,03,25,11.30
2016,08,23,03,26,11.20
2016,08,23,03,27,11.20
2016,08,23,03,28,11.20
2016,08,23,03,29,11.20
2016,08,23,03,30,11.20
2016,08,23,03,31,11.20
2016,08,23,03,32,11.20
2016,08,23,03,33,11.20
2016,08,23,03,34,11.20
2016,08,23,03,35,11.20
2016,08,23,03,36,11.20
2016,08,23,03,37,11.20
2016,08,23,03,38,11.20
2016,08,23,03,39,11.20
2016,08,23,03,40,11.20
2016,08,23,03,41,11.20
2016,08,23,03,42,11.20
2016,08,23,03,43,11.20
2016,08,23,03,44,11.20
2016,08,23,03,45,11.20
2016,08,23,03,46,11.20
2016,08,23,03,47,11.20
2016,08,23,03,48,11.20
2016,08,23,03,49,11.20
2016,08,23,03,50,11.20
2016,08,23,03,51,11.20
2016,08,23,03,52,11.20
2016,08,23,03,53,11.20
2016,08,23,03,54,11.20
2016,08,23,03,55,11.20
2016,08,23,03,56,11.20
2016,08,23,03,57,11.20
2016,08,23,03,58,11.20
2016,08,23,03,59,11.20
2016,08,23,04,00,11.20
2016,08,23,04,01,11.20
2016,08,23,04,02,11.20
2016,08,23,04,03,11.20
2016,08,23,04,04,11.20
2016,08,23,04,05,11.20
2016,08,23,04,06,11.20
2016,08,23,04,07,11.20
2016,08,23,04,08,11.20
2016,08,23,04,09,11.10
2016,08,23,04,10,11.10
2016,08,23,04,11,11.10
2016,08,23,04,12,11.10
2016,08,23,04,13,11.10
2016,08,23,04,14,11.10
2016,08,23,04,15,11.10
2016,08,23,04,16,11.10
2016,08,23,04,17,11.00
2016,08,23,04,18,11.00
2016,08,23,04,19,11.00
2016,08,23,04,20,11.00
2016,08,23,04,21,11.00
2016,08,23,04,22,11.00
2016,08,23,04,23,11.00
2016,08,23,04,24,10.90
2016,08,23,04,25,10.90
2016,08,23,04,26,10.90
2016,08,23,04,27,10.90
2016,08,23,04,28,10.90
2016,08,23,04,29,10.90
2016,08,23,04,30,10.90
2016,08,23,04,31,10.90
2016,08,23,04,32,10.90
2016,08,23,04,33,11.00
2016,08,23,04,34,11.00
2016,08,23,04,35,11.00
2016,08,23,04,36,11.00
2016,08,23,04,37,11.00
2016,08,23,04,38,11.00
2016,08,23,04,39,11.00
2016,08,23,04,40,11.00
2016,08,23,04,41,11.00
2016,08,23,04,42,11.00
2016,08,23,04,43,11.00
2016,08,23,04,44,11.00
2016,08,23,04,45,11.00
2016,08,23,04,46,11.00
2016,08,23,04,47,11.00
2016,08,23,04,48,11.00
2016,08,23,04,49,11.00
2016,08,23,04,50,11.00
2016,08,23,04,51,11.00
2016,08,23,04,52,11.00
2016,08,23,04,53,11.00
2016,08,23,04,54,11.00
2016,08,23,04,55,11.00
2016,08,23,04,56,11.00
2016,08,23,04,57,11.00
2016,08,23,04,58,11.00
2016,08,23,04,59,11.00
2016,08,23,05,00,11.10
2016,08,23,05,01,11.10
2016,08,23,05,02,11.10
2016,08,23,05,03,11.10
2016,08,23,05,04,11.10
2016,08,23,05,05,11.10
2016,08,23,05,06,11.10
2016,08,23,05,07,11.10
2016,08,23,05,08,11.10
2016,08,23,05,09,11.10
2016,08,23,05,10,11.10
2016,08,23,05,11,11.10
2016,08,23,05,12,11.10
2016,08,23,05,13,11.10
2016,08,23,05,14,11.10
2016,08,23,05,15,11.10
2016,08,23,05,16,11.10
2016,08,23,05,17,11.10
2016,08,23,05,18,11.10
2016,08,23,05,19,11.10
2016,08,23,05,20,11.10
2016,08,23,05,21,11.20
2016,08,23,05,22,11.20
2016,08,23,05,23,11.30
2016,08,23,05,24,11.30
2016,08,23,05,25,11.40
2016,08,23,05,26,11.40
2016,08,23,05,27,11.50
2016,08,23,05,28,11.50
2016,08,23,05,29,11.60
2016,08,23,05,30,11.50
2016,08,23,05,31,11.60
2016,08,23,05,32,11.60
2016,08,23,05,33,11.60
2016,08,23,05,34,11.60
2016,08,23,05,35,11.50
2016,08,23,05,36,11.50
2016,08,23,05,37,11.50
2016,08,23,05,38,11.60
2016,08,23,05,39,11.60
2016,08,23,05,40,11.60
2016,08,23,05,41,11.60
2016,08,23,05,42,11.60
2016,08,23,05,43,11.60
2016,08,23,05,44,11.60
2016,08,23,05,45,11.60
2016,08,23,05,46,11.60
2016,08,23,05,47,11.60
2016,08,23,05,48,11.70
2016,08,23,05,49,11.70
2016,08,23,05,50,11.70
2016,08,23,05,51,11.80
2016,08,23,05,52,11.80
2016,08,23,05,53,11.80
2016,08,23,05,54,11.90
2016,08,23,05,55,12.00
2016,08,23,05,56,12.10
2016,08,23,05,57,12.10
2016,08,23,05,58,12.10
2016,08,23,05,59,12.20
2016,08,23,06,00,12.20
2016,08,23,06,01,12.20
2016,08,23,06,02,12.30
2016,08,23,06,03,12.30
2016,08,23,06,04,12.30
2016,08,23,06,05,12.30
2016,08,23,06,06,12.30
2016,08,23,06,07,12.30
2016,08,23,06,08,12.30
2016,08,23,06,09,12.30
2016,08,23,06,10,12.30
2016,08,23,06,11,12.40
2016,08,23,06,12,12.40
2016,08,23,06,13,12.40
2016,08,23,06,14,12.40
2016,08,23,06,15,12.40
2016,08,23,06,16,12.40
2016,08,23,06,17,12.40
2016,08,23,06,18,12.40
2016,08,23,06,19,12.40
2016,08,23,06,20,12.30
2016,08,23,06,21,12.30
2016,08,23,06,22,12.30
2016,08,23,06,23,12.30
2016,08,23,06,24,12.30
2016,08,23,06,25,12.30
2016,08,23,06,26,12.20
2016,08,23,06,27,12.20
2016,08,23,06,28,12.20
2016,08,23,06,29,12.10
2016,08,23,06,30,12.10
2016,08,23,06,31,12.10
2016,08,23,06,32,12.10
2016,08,23,06,33,12.10
2016,08,23,06,34,12.10
2016,08,23,06,35,12.00
2016,08,23,06,36,12.00
2016,08,23,06,37,12.00
2016,08,23,06,38,12.00
2016,08,23,06,39,12.00
2016,08,23,06,40,12.10
2016,08,23,06,41,12.10
2016,08,23,06,42,12.10
2016,08,23,06,43,12.10
2016,08,23,06,44,12.10
2016,08,23,06,45,12.10
2016,08,23,06,46,12.00
2016,08,23,06,47,12.00
2016,08,23,06,48,12.00
2016,08,23,06,49,12.00
2016,08,23,06,50,12.00
2016,08,23,06,51,12.00
2016,08,23,06,52,12.00
2016,08,23,06,53,12.00
2016,08,23,06,54,12.00
2016,08,23,06,55,12.00
2016,08,23,06,56,12.00
2016,08,23,06,57,12.10
2016,08,23,06,58,12.10
2016,08,23,06,59,12.10
2016,08,23,07,00,12.10
2016,08,23,07,01,12.10
2016,08,23,07,02,12.20
2016,08,23,07,03,12.20
2016,08,23,07,04,12.20
2016,08,23,07,05,12.20
2016,08,23,07,06,12.20
2016,08,23,07,07,12.20
2016,08,23,07,08,12.20
2016,08,23,07,09,12.20
2016,08,23,07,10,12.20
2016,08,23,07,11,12.20
2016,08,23,07,12,12.20
2016,08,23,07,13,12.20
2016,08,23,07,14,12.20
2016,08,23,07,15,12.20
2016,08,23,07,16,12.20
2016,08,23,07,17,12.30
2016,08,23,07,18,12.30
2016,08,23,07,19,12.30
2016,08,23,07,20,12.30
2016,08,23,07,21,12.30
2016,08,23,07,22,12.30
2016,08,23,07,23,12.40
2016,08,23,07,24,12.40
2016,08,23,07,25,12.40
2016,08,23,07,26,12.40
2016,08,23,07,27,12.40
2016,08,23,07,28,12.40
2016,08,23,07,29,12.40
2016,08,23,07,30,12.40
2016,08,23,07,31,12.40
2016,08,23,07,32,12.40
2016,08,23,07,33,12.50
2016,08,23,07,34,12.50
2016,08,23,07,35,12.50
2016,08,23,07,36,12.50
2016,08,23,07,37,12.50
2016,08,23,07,38,12.50
2016,08,23,07,39,12.50
2016,08,23,07,40,12.50
2016,08,23,07,41,12.60
2016,08,23,07,42,12.60
2016,08,23,07,43,12.60
2016,08,23,07,44,12.60
2016,08,23,07,45,12.60
2016,08,23,07,46,12.60
2016,08,23,07,47,12.60
2016,08,23,07,48,12.70
2016,08,23,07,49,12.70
2016,08,23,07,50,12.80
2016,08,23,07,51,12.80
2016,08,23,07,52,12.90
2016,08,23,07,53,12.90
2016,08,23,07,54,13.00
2016,08,23,07,55,13.00
2016,08,23,07,56,13.10
2016,08,23,07,57,13.10
2016,08,23,07,58,13.20
2016,08,23,07,59,13.20
2016,08,23,08,00,13.30
2016,08,23,08,01,13.30
2016,08,23,08,02,13.30
2016,08,23,08,03,13.40
2016,08,23,08,04,13.40
2016,08,23,08,05,13.40
2016,08,23,08,06,13.50
2016,08,23,08,07,13.50
2016,08,23,08,08,13.60
2016,08,23,08,09,13.60
2016,08,23,08,10,13.60
2016,08,23,08,11,13.70
2016,08,23,08,12,13.70
2016,08,23,08,13,13.80
2016,08,23,08,14,13.80
2016,08,23,08,15,13.80
2016,08,23,08,16,13.90
2016,08,23,08,17,13.90
2016,08,23,08,18,14.00
2016,08,23,08,19,14.10
2016,08,23,08,20,14.10
2016,08,23,08,21,14.10
2016,08,23,08,22,14.20
2016,08,23,08,23,14.30
2016,08,23,08,24,14.30
2016,08,23,08,25,14.40
2016,08,23,08,26,14.50
2016,08,23,08,27,14.50
2016,08,23,08,28,14.60
2016,08,23,08,29,14.60
2016,08,23,08,30,14.60
2016,08,23,08,31,14.70
2016,08,23,08,32,14.70
2016,08,23,08,33,14.80
2016,08,23,08,34,14.80
2016,08,23,08,35,14.90
2016,08,23,08,36,14.90
2016,08,23,08,37,14.90
2016,08,23,08,38,14.90
2016,08,23,08,39,15.00
2016,08,23,08,40,15.00
2016,08,23,08,41,15.10
2016,08,23,08,42,15.10
2016,08,23,08,43,15.20
2016,08,23,08,44,15.20
2016,08,23,08,45,15.30
2016,08,23,08,46,15.30
2016,08,23,08,47,15.40
2016,08,23,08,48,15.40
2016,08,23,08,49,15.50
2016,08,23,08,50,15.50
2016,08,23,08,51,15.60
2016,08,23,08,52,15.60
2016,08,23,08,53,15.70
2016,08,23,08,54,15.80
2016,08,23,08,55,15.80
2016,08,23,08,56,15.90
2016,08,23,08,57,15.90
2016,08,23,08,58,15.90
2016,08,23,08,59,16.00
2016,08,23,09,00,16.10
2016,08,23,09,01,16.10
2016,08,23,09,02,16.20
2016,08,23,09,03,16.20
2016,08,23,09,04,16.20
2016,08,23,09,05,16.30
2016,08,23,09,06,16.30
2016,08,23,09,07,16.40
2016,08,23,09,08,16.40
2016,08,23,09,09,16.50
2016,08,23,09,10,16.50
2016,08,23,09,11,16.60
2016,08,23,09,12,16.60
2016,08,23,09,13,16.70
2016,08,23,09,14,16.70
2016,08,23,09,15,16.70
2016,08,23,09,16,16.80
2016,08,23,09,17,16.80
2016,08,23,09,18,16.80
2016,08,23,09,19,16.80
2016,08,23,09,20,16.90
2016,08,23,09,21,16.90
2016,08,23,09,22,16.90
2016,08,23,09,23,17.00
2016,08,23,09,24,17.00
2016,08,23,09,25,17.00
2016,08,23,09,26,17.10
2016,08,23,09,27,17.10
2016,08,23,09,28,17.10
2016,08,23,09,29,17.10
2016,08,23,09,30,17.20
2016,08,23,09,31,17.20
2016,08,23,09,32,17.30
2016,08,23,09,33,17.30
2016,08,23,09,34,17.40
2016,08,23,09,35,17.50
2016,08,23,09,36,17.60
2016,08,23,09,37,17.60
2016,08,23,09,38,17.70
2016,08,23,09,39,17.70
2016,08,23,09,40,17.80
2016,08,23,09,41,17.80
2016,08,23,09,42,17.80
2016,08,23,09,43,17.90
2016,08,23,09,44,17.90
2016,08,23,09,45,18.00
2016,08,23,09,46,18.00
2016,08,23,09,47,18.10
2016,08,23,09,48,18.20
2016,08,23,09,49,18.20
2016,08,23,09,50,18.30
2016,08,23,09,51,18.40
2016,08,23,09,52,18.50
2016,08,23,09,53,18.50
2016,08,23,09,54,18.50
2016,08,23,09,55,18.50
2016,08,23,09,56,18.50
2016,08,23,09,57,18.60
2016,08,23,09,58,18.60
2016,08,23,09,59,18.60
2016,08,23,10,00,18.60
2016,08,23,10,01,18.70
2016,08,23,10,02,18.80
2016,08,23,10,03,18.80
2016,08,23,10,04,18.90
2016,08,23,10,05,19.00
2016,08,23,10,06,19.10
2016,08,23,10,07,19.10
2016,08,23,10,08,19.20
2016,08,23,10,09,19.30
2016,08,23,10,10,19.30
2016,08,23,10,11,19.40
2016,08,23,10,12,19.50
2016,08,23,10,13,19.50
2016,08,23,10,14,19.60
2016,08,23,10,15,19.60
2016,08,23,10,16,19.60
2016,08,23,10,17,19.60
2016,08,23,10,18,19.50
2016,08,23,10,19,19.50
2016,08,23,10,20,19.50
2016,08,23,10,21,19.50
2016,08,23,10,22,19.50
2016,08,23,10,23,19.40
2016,08,23,10,24,19.40
2016,08,23,10,25,19.40
2016,08,23,10,26,19.40
2016,08,23,10,27,19.50
2016,08,23,10,28,19.50
2016,08,23,10,29,19.50
2016,08,23,10,30,19.50
2016,08,23,10,31,19.60
2016,08,23,10,32,19.60
2016,08,23,10,33,19.60
2016,08,23,10,34,19.60
2016,08,23,10,35,19.60
2016,08,23,10,36,19.60
2016,08,23,10,37,19.50
2016,08,23,10,38,19.50
2016,08,23,10,39,19.40
2016,08,23,10,40,19.30
2016,08,23,10,41,19.30
2016,08,23,10,42,19.30
2016,08,23,10,43,19.30
2016,08,23,10,44,19.30
2016,08,23,10,45,19.30
2016,08,23,10,46,19.30
2016,08,23,10,47,19.40
2016,08,23,10,48,19.50
2016,08,23,10,49,19.50
2016,08,23,10,50,19.60
2016,08,23,10,51,19.60
2016,08,23,10,52,19.60
2016,08,23,10,53,19.60
2016,08,23,10,54,19.70
2016,08,23,10,55,19.70
2016,08,23,10,56,19.70
2016,08,23,10,57,19.70
2016,08,23,10,58,19.70
2016,08,23,10,59,19.70
2016,08,23,11,00,19.70
2016,08,23,11,01,19.70
2016,08,23,11,02,19.70
2016,08,23,11,03,19.80
2016,08,23,11,04,19.80
2016,08,23,11,05,19.80
2016,08,23,11,06,19.70
2016,08,23,11,07,19.70
2016,08,23,11,08,19.70
2016,08,23,11,09,19.70
2016,08,23,11,10,19.70
2016,08,23,11,11,19.80
2016,08,23,11,12,19.80
2016,08,23,11,13,19.80
2016,08,23,11,14,19.90
2016,08,23,11,15,20.00
2016,08,23,11,16,20.00
2016,08,23,11,17,20.10
2016,08,23,11,18,20.10
2016,08,23,11,19,20.20
2016,08,23,11,20,20.20
2016,08,23,11,21,20.20
2016,08,23,11,22,20.20
2016,08,23,11,23,20.20
2016,08,23,11,24,20.30
2016,08,23,11,25,20.40
2016,08,23,11,26,20.40
2016,08,23,11,27,20.50
2016,08,23,11,28,20.60
2016,08,23,11,29,20.60
2016,08,23,11,30,20.70
2016,08,23,11,31,20.70
2016,08,23,11,32,20.80
2016,08,23,11,33,20.80
2016,08,23,11,34,20.80
2016,08,23,11,35,20.80
2016,08,23,11,36,20.70
2016,08,23,11,37,20.70
2016,08,23,11,38,20.70
2016,08,23,11,39,20.70
2016,08,23,11,40,20.70
2016,08,23,11,41,20.70
2016,08,23,11,42,20.70
2016,08,23,11,43,20.70
2016,08,23,11,44,20.70
2016,08,23,11,45,20.70
2016,08,23,11,46,20.80
2016,08,23,11,47,20.80
2016,08,23,11,48,20.80
2016,08,23,11,49,20.80
2016,08,23,11,50,20.90
2016,08,23,11,51,20.90
2016,08,23,11,52,20.90
2016,08,23,11,53,20.90
2016,08,23,11,54,20.80
2016,08,23,11,55,20.60
2016,08,23,11,56,20.50
2016,08,23,11,57,20.50
2016,08,23,11,58,20.50
2016,08,23,11,59,20.50
2016,08,23,12,00,20.60
2016,08,23,12,01,20.60
2016,08,23,12,02,20.70
2016,08,23,12,03,20.70
2016,08,23,12,04,20.80
2016,08,23,12,05,20.80
2016,08,23,12,06,20.90
2016,08,23,12,07,20.90
2016,08,23,12,08,20.90
2016,08,23,12,09,20.90
2016,08,23,12,10,20.90
2016,08,23,12,11,20.80
2016,08,23,12,12,20.80
2016,08,23,12,13,20.80
2016,08,23,12,14,20.80
2016,08,23,12,15,20.70
2016,08,23,12,16,20.70
2016,08,23,12,17,20.70
2016,08,23,12,18,20.70
2016,08,23,12,19,20.80
2016,08,23,12,20,20.80
2016,08,23,12,21,20.80
2016,08,23,12,22,20.70
2016,08,23,12,23,20.70
2016,08,23,12,24,20.70
2016,08,23,12,25,20.70
2016,08,23,12,26,20.70
2016,08,23,12,27,20.70
2016,08,23,12,28,20.70
2016,08,23,12,29,20.70
2016,08,23,12,30,20.70
2016,08,23,12,31,20.60
2016,08,23,12,32,20.60
2016,08,23,12,33,20.60
2016,08,23,12,34,20.60
2016,08,23,12,35,20.60
2016,08,23,12,36,20.60
2016,08,23,12,37,20.60
2016,08,23,12,38,20.60
2016,08,23,12,39,20.60
2016,08,23,12,40,20.60
2016,08,23,12,41,20.60
2016,08,23,12,42,20.60
2016,08,23,12,43,20.60
2016,08,23,12,44,20.60
2016,08,23,12,45,20.60
2016,08,23,12,46,20.60
2016,08,23,12,47,20.50
2016,08,23,12,48,20.50
2016,08,23,12,49,20.50
2016,08,23,12,50,20.50
2016,08,23,12,51,20.40
2016,08,23,12,52,20.30
2016,08,23,12,53,20.30
2016,08,23,12,54,20.30
2016,08,23,12,55,20.20
2016,08,23,12,56,20.20
2016,08,23,12,57,20.20
2016,08,23,12,58,20.20
2016,08,23,12,59,20.30
2016,08,23,13,00,20.30
2016,08,23,13,01,20.30
2016,08,23,13,02,20.40
2016,08,23,13,03,20.40
2016,08,23,13,04,20.50
2016,08,23,13,05,20.50
2016,08,23,13,06,20.60
2016,08,23,13,07,20.50
2016,08,23,13,08,20.50
2016,08,23,13,09,20.50
2016,08,23,13,10,20.60
2016,08,23,13,11,20.60
2016,08,23,13,12,20.70
2016,08,23,13,13,20.80
2016,08,23,13,14,20.80
2016,08,23,13,15,20.80
2016,08,23,13,16,20.90
2016,08,23,13,17,20.90
2016,08,23,13,18,21.00
2016,08,23,13,19,21.10
2016,08,23,13,20,21.10
2016,08,23,13,21,21.10
2016,08,23,13,22,21.10
2016,08,23,13,23,21.20
2016,08,23,13,24,21.20
2016,08,23,13,25,21.30
2016,08,23,13,26,21.40
2016,08,23,13,27,21.50
2016,08,23,13,28,21.60
2016,08,23,13,29,21.70
2016,08,23,13,30,21.80
2016,08,23,13,31,21.80
2016,08,23,13,32,21.80
2016,08,23,13,33,21.80
2016,08,23,13,34,21.80
2016,08,23,13,35,21.70
2016,08,23,13,36,21.70
2016,08,23,13,37,21.70
2016,08,23,13,38,21.70
2016,08,23,13,39,21.70
2016,08,23,13,40,21.80
2016,08,23,13,41,21.80
2016,08,23,13,42,21.80
2016,08,23,13,43,21.70
2016,08,23,13,44,21.70
2016,08,23,13,45,21.60
2016,08,23,13,46,21.60
2016,08,23,13,47,21.60
2016,08,23,13,48,21.70
2016,08,23,13,49,21.70
2016,08,23,13,50,21.70
2016,08,23,13,51,21.70
2016,08,23,13,52,21.70
2016,08,23,13,53,21.70
2016,08,23,13,54,21.60
2016,08,23,13,55,21.60
2016,08,23,13,56,21.70
2016,08,23,13,57,21.70
2016,08,23,13,58,21.60
2016,08,23,13,59,21.60
2016,08,23,14,00,21.60
2016,08,23,14,01,21.60
2016,08,23,14,02,21.70
2016,08,23,14,03,21.80
2016,08,23,14,04,21.90
2016,08,23,14,05,21.90
2016,08,23,14,06,21.90
2016,08,23,14,07,21.90
2016,08,23,14,08,22.00
2016,08,23,14,09,22.00
2016,08,23,14,10,22.10
2016,08,23,14,11,22.10
2016,08,23,14,12,22.20
2016,08,23,14,13,22.20
2016,08,23,14,14,22.30
2016,08,23,14,15,22.30
2016,08,23,14,16,22.40
2016,08,23,14,17,22.50
2016,08,23,14,18,22.50
2016,08,23,14,19,22.60
2016,08,23,14,20,22.60
2016,08,23,14,21,22.60
2016,08,23,14,22,22.70
2016,08,23,14,23,22.80
2016,08,23,14,24,22.80
2016,08,23,14,25,22.90
2016,08,23,14,26,23.00
2016,08,23,14,27,23.00
2016,08,23,14,28,22.90
2016,08,23,14,29,22.80
2016,08,23,14,30,22.70
2016,08,23,14,31,22.60
2016,08,23,14,32,22.60
2016,08,23,14,33,22.60
2016,08,23,14,34,22.60
2016,08,23,14,35,22.70
2016,08,23,14,36,22.70
2016,08,23,14,37,22.70
2016,08,23,14,38,22.70
2016,08,23,14,39,22.70
2016,08,23,14,40,22.70
2016,08,23,14,41,22.70
2016,08,23,14,42,22.70
2016,08,23,14,43,22.60
2016,08,23,14,44,22.60
2016,08,23,14,45,22.60
2016,08,23,14,46,22.70
2016,08,23,14,47,22.70
2016,08,23,14,48,22.60
2016,08,23,14,49,22.70
2016,08,23,14,50,22.70
2016,08,23,14,51,22.80
2016,08,23,14,52,22.90
2016,08,23,14,53,23.00
2016,08,23,14,54,23.10
2016,08,23,14,55,23.20
2016,08,23,14,56,23.30
2016,08,23,14,57,23.30
2016,08,23,14,58,23.40
2016,08,23,14,59,23.40
2016,08,23,15,00,23.50
2016,08,23,15,01,23.60
2016,08,23,15,02,23.70
2016,08,23,15,03,23.70
2016,08,23,15,04,23.70
2016,08,23,15,05,23.70
2016,08,23,15,06,23.70
2016,08,23,15,07,23.70
2016,08,23,15,08,23.70
2016,08,23,15,09,23.70
2016,08,23,15,10,23.70
2016,08,23,15,11,23.70
2016,08,23,15,12,23.70
2016,08,23,15,13,23.70
2016,08,23,15,14,23.60
2016,08,23,15,15,23.60
2016,08,23,15,16,23.50
2016,08,23,15,17,23.40
2016,08,23,15,18,23.40
2016,08,23,15,19,23.30
2016,08,23,15,20,23.30
2016,08,23,15,21,23.20
2016,08,23,15,22,23.20
2016,08,23,15,23,23.10
2016,08,23,15,24,23.00
2016,08,23,15,25,23.00
2016,08,23,15,26,22.90
2016,08,23,15,27,22.90
2016,08,23,15,28,22.80
2016,08,23,15,29,22.70
2016,08,23,15,30,22.70
2016,08,23,15,31,22.70
2016,08,23,15,32,22.70
2016,08,23,15,33,22.70
2016,08,23,15,34,22.70
2016,08,23,15,35,22.70
2016,08,23,15,36,22.70
2016,08,23,15,37,22.80
2016,08,23,15,38,22.80
2016,08,23,15,39,22.90
2016,08,23,15,40,23.00
2016,08,23,15,41,23.10
2016,08,23,15,42,23.20
2016,08,23,15,43,23.30
2016,08,23,15,44,23.30
2016,08,23,15,45,23.30
2016,08,23,15,46,23.40
2016,08,23,15,47,23.40
2016,08,23,15,48,23.40
2016,08,23,15,49,23.50
2016,08,23,15,50,23.50
2016,08,23,15,51,23.50
2016,08,23,15,52,23.40
2016,08,23,15,53,23.40
2016,08,23,15,54,23.50
2016,08,23,15,55,23.50
2016,08,23,15,56,23.50
2016,08,23,15,57,23.50
2016,08,23,15,58,23.40
2016,08,23,15,59,23.40
2016,08,23,16,00,23.30
2016,08,23,16,01,23.30
2016,08,23,16,02,23.20
2016,08,23,16,03,23.20
2016,08,23,16,04,23.20
2016,08,23,16,05,23.10
2016,08,23,16,06,23.10
2016,08,23,16,07,23.10
2016,08,23,16,08,23.10
2016,08,23,16,09,23.10
2016,08,23,16,10,23.10
2016,08,23,16,11,23.10
2016,08,23,16,12,23.10
2016,08,23,16,13,23.00
2016,08,23,16,14,22.90
2016,08,23,16,15,22.90
2016,08,23,16,16,22.80
2016,08,23,16,17,22.80
2016,08,23,16,18,22.80
2016,08,23,16,19,22.90
2016,08,23,16,20,22.90
2016,08,23,16,21,22.90
2016,08,23,16,22,23.00
2016,08,23,16,23,23.00
2016,08,23,16,24,23.00
2016,08,23,16,25,23.00
2016,08,23,16,26,23.00
2016,08,23,16,27,23.00
2016,08,23,16,28,22.90
2016,08,23,16,29,22.90
2016,08,23,16,30,22.90
2016,08,23,16,31,22.90
2016,08,23,16,32,22.90
2016,08,23,16,33,22.80
2016,08,23,16,34,22.80
2016,08,23,16,35,22.80
2016,08,23,16,36,22.70
2016,08,23,16,37,22.70
2016,08,23,16,38,22.70
2016,08,23,16,39,22.70
2016,08,23,16,40,22.70
2016,08,23,16,41,22.70
2016,08,23,16,42,22.70
2016,08,23,16,43,22.70
2016,08,23,16,44,22.70
2016,08,23,16,45,22.70
2016,08,23,16,46,22.60
2016,08,23,16,47,22.70
2016,08,23,16,48,22.70
2016,08,23,16,49,22.70
2016,08,23,16,50,22.80
2016,08,23,16,51,22.80
2016,08,23,16,52,22.80
2016,08,23,16,53,22.80
2016,08,23,16,54,22.90
2016,08,23,16,55,22.90
2016,08,23,16,56,22.90
2016,08,23,16,57,22.90
2016,08,23,16,58,23.00
2016,08,23,16,59,23.10
2016,08,23,17,00,23.20
2016,08,23,17,01,23.20
2016,08,23,17,02,23.30
2016,08,23,17,03,23.40
2016,08,23,17,04,23.50
2016,08,23,17,05,23.50
2016,08,23,17,06,23.50
2016,08,23,17,07,23.50
2016,08,23,17,08,23.40
2016,08,23,17,09,23.40
2016,08,23,17,10,23.30
2016,08,23,17,11,23.20
2016,08,23,17,12,23.10
2016,08,23,17,13,23.10
2016,08,23,17,14,23.10
2016,08,23,17,15,23.00
2016,08,23,17,16,23.00
2016,08,23,17,17,23.10
2016,08,23,17,18,23.10
2016,08,23,17,19,23.10